sat.trackr.live / text

‹ back to catalog

STARLINK-5974

NORAD 56344 · 2023-058AD

PAYLOAD ACTIVE UNKNOWN

§ Identity

Operator
Country
US
Launch date
2023-04-27
Launch site
AFWTR
Launch vehicle
Mass (kg)
RCS (m²)

Purposes: comms

External: N2YO · Heavens-Above · Gunter

§ Orbital elements

Epoch: 2026-09-20T13:33:54.293472Z

Period
93.91 min
Inclination
97.2847°
Eccentricity
0.0001629
Mean motion
15.33437176 rev/d
Perigee alt
464.5 km
Apogee alt
466.7 km
Semi-major
6,843.7 km
B*
-6.1512e-6
RAAN
260.2994°
Arg perigee
95.9685°
Mean anomaly
264.1743°
Rev number
18,764

§ Raw data

STARLINK-59741 56344U 23058AD  26263.56521173 -.00000274  00000+0 -61512-5 0  99932 56344  97.2847 260.2994 0001629  95.9685 264.1743 15.33437176187646

JSON: /api/v1/satellites/56344 · /tle

For live sub-satellite position, see the globe view (requires WebGL).

§ Visibility from observer

Set your observer location to see the next 7 days of passes ≥ 10°. The values pass through the URL so the page stays shareable.

No JS? Fill the form by hand. The geolocation button needs JavaScript.